Weather in Berezovka

Russia / Amur Oblast     53°27′53″N   126°57′55″E
temp.,
°C
wind,
m/s
gust,
m/s
humid.,
%
clouds,
%
prec.,
mm/h
press.,
hPa
HPBL,
m
20 september, mon
mon2000:00+5sw11845 0.0 101610
03:00+4s11865 0.0 101610
06:00+3ssw11885 0.0 101510
09:00+9wsw13698 0.0 1014296
12:00+15wsw24575 0.0 1012897
15:00+17w34532 0.0 10111345
18:00+13wsw11742 0.0 101110
21:00+9e11870 0.0 101210
21 september, tue
tue2100:00+8ene11910 0.0 101210
03:00+7ene11930 0.0 101211
06:00+6ene11950 0.0 101313
09:00+11ene23780 0.0 1012266
12:00+17ese22601 0.0 1011903
15:00+18ese225511 0.0 10101413
18:00+14e227537 0.0 101013
21:00+10e228654 0.0 101238
22 september, wed
wed2200:00+9ene239198 0.0 101351
03:00+8ne2591100 0.0 101392
06:00+7ne229283 0.0 101528
09:00+11nne237297 0.0 1015291
12:00+16ene3539100 0.0 10141195
15:00+17ene3438100 0.0 10151483
18:00+12nne2264100 0.0 101622
21:00+8ene2369100 0.0 101837
23 september, thu
thu2300:00+6ene2272100 0.0 102016
03:00+5ne117426 0.0 102110
06:00+4ene11730 0.0 102210
09:00+10ene23550 0.0 1022252
12:00+15ese234094 0.0 1021817
15:00+16ese233789 0.0 10201125
18:00+11se2262100 0.0 102011
21:00+8ese1167100 0.0 102110
24 september, fri
fri2400:00+7e1171100 0.0 102213
03:00+7ese2373100 0.0 102260
06:00+7e2578100 0.1 1022135
09:00+8ese3883100 0.2 1023297
12:00+8ese3992100 0.7 1023445
15:00+9e2694100 1.1 1023246
18:00+10ene1197100 0.3 102328
21:00+9wnw119987 1.1 102528